This is the latest recevied weather packets stored in our database for station/object KD5FHA. If no packets are shown the sender has not sent any weather packets the latest 10 day(s).
| Time | Temp. | Humidity | Pressure | Rain* | Wind** | Luminosity | Snow |
|---|---|---|---|---|---|---|---|
| 1777585208 | 15° C | 94% | 1014.2 hPa | 0 mm | - | 74 W/m² | - |
| 1777584904 | 15° C | 94% | 1014.3 hPa | 0.51 mm | - | 75 W/m² | - |
| 1777584601 | 15.56° C | 94% | 1014.2 hPa | 0.51 mm | - | 80 W/m² | - |
| 1777584298 | 15.56° C | 93% | 1014.2 hPa | 0.51 mm | - | 60 W/m² | - |
| 1777583993 | 15.56° C | 92% | 1014.3 hPa | 0.51 mm | - | 50 W/m² | - |
| 1777583693 | 15.56° C | 92% | 1014.1 hPa | 0.51 mm | - | 51 W/m² | - |
| 1777583392 | 15.56° C | 91% | 1014 hPa | 0.51 mm | - | 43 W/m² | - |
| 1777583091 | 16.11° C | 90% | 1013.7 hPa | 0 mm | - | 43 W/m² | - |
| 1777582788 | 16.11° C | 90% | 1013.9 hPa | 0 mm | - | 37 W/m² | - |
| 1777582483 | 16.11° C | 90% | 1014 hPa | 0 mm | - | 42 W/m² | - |
| 1777582179 | 16.11° C | 90% | 1014.5 hPa | 0 mm | - | 39 W/m² | - |
| 1777581877 | 16.11° C | 90% | 1014.2 hPa | 0 mm | - | 36 W/m² | - |
| 1777581572 | 16.11° C | 90% | 1013.9 hPa | 0 mm | - | 36 W/m² | - |
| 1777581267 | 16.11° C | 91% | 1013.8 hPa | 0 mm | - | 38 W/m² | - |
| 1777580963 | 16.11° C | 91% | 1014 hPa | 0 mm | - | 34 W/m² | - |
| 1777580657 | 16.11° C | 92% | 1014.1 hPa | 0 mm | - | 38 W/m² | - |
| 1777580353 | 16.11° C | 92% | 1014.2 hPa | 0 mm | - | 41 W/m² | - |
| 1777580049 | 16.11° C | 92% | 1014 hPa | 0 mm | - | 43 W/m² | - |
| 1777579746 | 16.67° C | 92% | 1014.1 hPa | 0 mm | - | 55 W/m² | - |
| 1777579444 | 16.67° C | 92% | 1014.6 hPa | 0 mm | - | 43 W/m² | - |
| 1777579139 | 16.67° C | 93% | 1014.5 hPa | 0 mm | - | 47 W/m² | - |
| 1777578839 | 16.67° C | 93% | 1014.8 hPa | 0 mm | - | 54 W/m² | - |
| 1777578535 | 16.67° C | 93% | 1014.6 hPa | 0 mm | - | 73 W/m² | - |
| 1777578230 | 16.67° C | 93% | 1014.1 hPa | 0 mm | - | 56 W/m² | - |
| 1777577925 | 16.67° C | 93% | 1013.9 hPa | 0 mm | - | 55 W/m² | - |
* Rain latest hour (hover to see other rain measurements)
** Current wind speed in m/s (hover to see current wind gust speed)